AirNav   ProFlight Series 2 Aviation Headset
 
 1213 users online  

1S4 Seiling Airport
Seiling, Oklahoma, USA

GOING TO SEILING?


FAA INFORMATION EFFECTIVE 18 JUNE 2020

Location

FAA Identifier: 1S4
Lat/Long: 36-09-19.3000N 098-56-01.3000W
36-09.321667N 098-56.021667W
36.1553611,-98.9336944
(estimated)
Elevation: 1746 ft. / 532.2 m (surveyed)
Variation: 08E (1985)
Time zone: UTC -5 (UTC -6 during Standard Time)
Zip code: 73663

Airport Operations

Airport use: Open to the public
Activation date: 01/1962
Control tower: no
ARTCC: KANSAS CITY CENTER
FSS: MC ALESTER FLIGHT SERVICE STATION
NOTAMs facility: MLC (NOTAM-D service available)
Attendance: UNATNDD
Wind indicator: yes
Segmented circle: no
Lights: ACTIVATE LIRL RY 17/35 - CTAF.

Airport Communications

CTAF: 122.9

Airport Services

Airframe service: NONE
Powerplant service: NONE
Bottled oxygen: NONE
Bulk oxygen: NONE

Runway Information

Runway 17/35

Dimensions: 2435 x 38 ft. / 742 x 12 m
Surface: asphalt, in poor condition
RY ROUGH WITH SEVERE GRASS ENCROACHMENT, CRACKING AND RAVELING.
Weight bearing capacity: 
Single wheel: LESS THAN 4000 LBS
Runway edge lights: low intensity
RUNWAY 17  RUNWAY 35
Latitude: 36-09.521542N36-09.120157N
Longitude: 098-56.017765W098-56.024577W
Elevation: 1746.0 ft.1736.0 ft.
Traffic pattern: leftleft
Runway heading: 173 magnetic, 181 true353 magnetic, 001 true
Visual slope indicator: tri-color VASI on left (4.50 degrees glide path)
TRIL OTS INDEFLY.
tri-color VASI on left (6.50 degrees glide path)
TRIL OTS INDEFLY.
Obstructions: none
15 FT ROAD 35 FT FM THLD; +35 FT TREE 100 FT L OF CNTRLN AT THLD.
25 ft. tree, 220 ft. from runway, 30 ft. left of centerline, 1:1 slope to clear
15 FT ROAD 110 FT FM THLD; 20 FT POWERLINE 140 FT FM THLD, 115 FT RIGHT AND LEFT OF CENTERLINE; +15 FT TREE 120 FT RIGHT OF CENTERLINE AT THRESHOLD.

Airport Ownership and Management from official FAA records

Ownership: Publicly-owned
Owner: TOWN OF SEILING
315 N. MAIN ST.
SEILING, OK 73663
Phone 580-922-4460
Manager: GENA CHRISTENSEN
PO BOX 1043
SEILING, OK 73663
Phone 580-922-4460
CITY MANAGER.

Airport Operational Statistics

Aircraft based on the field: 2
Single engine airplanes: 2
    
Aircraft operations: 20/year *
100% transient general aviation
* for 12-month period ending 20 October 2017

Additional Remarks

496 FT AGL UNLGTD TOWER 18 NM S OF ARPT.
FOR CD CTC KANSAS CITY ARTCC AT 913-254-8508.

Instrument Procedures

There are no published instrument procedures at 1S4.

Some nearby airports with instrument procedures:

KMDF - Mooreland Municipal Airport (23 nm NW)
6K4 - Fairview Municipal Airport (24 nm E)
1O4 - Thomas Municipal Airport (27 nm S)
KJWG - Watonga Regional Airport (30 nm SE)
KWWR - West Woodward Airport (33 nm NW)
 
Loc | Ops | Rwys | IFR | FBO | Links
Com | Nav | Svcs | Stats | Notes

AirBoss

 
Area around 1S4 (Seiling Airport)
 
Road maps at: MapQuest Bing Google
 
Aerial photo
No photo
 
Sectional chart

 
Airport distance calculator
Flying to Seiling Airport? Find the distance to fly.

From to 1S4

Sunrise and sunset
Times for 10-Jul-2020
 Local
(UTC-5)
 Zulu
(UTC)
Morning civil twilight05:5910:59
Sunrise06:2911:29
Sunset20:5401:54
Evening civil twilight21:2402:24

Current date and time
Zulu (UTC)  10-Jul-2020 17:56:23
Local (UTC-5)  10-Jul-2020 12:56:23
 
METAR
KJWG 
30nm SE 
101735Z AUTO 13016G22KT 10SM CLR 22/20 A3010 RMK AO2 LTG DSNT SE T02210198
KCLK 
37nm S 
101735Z AUTO 12014G24KT 10SM CLR 26/19 A3008 RMK AO2 LTG DSNT E
KWWR 
39nm NW 
101735Z AUTO 13023G29KT 10SM CLR 28/18 A3007 RMK AO2
KOJA 
39nm S 
101735Z AUTO 11013G23KT 10SM CLR 25/21 A3008 RMK AO2 LTG DSNT E
KAVK 
39nm N 
101735Z AUTO 15022G31KT 10SM CLR 28/19 A3003 RMK AO2 PWINO TSNO
KGAG 
41nm W 
101653Z AUTO 12021G30KT 10SM CLR 28/19 A3006 RMK AO2 PK WND 11030/1647 SLP146 T02780189
KELK 
49nm SW 
101735Z AUTO 10015G22KT 10SM CLR 25/21 A3008 RMK AO2 LTG DSNT E AND S T02520207
TAF
KWWR 
39nm NW 
101120Z 1012/1112 11014KT P6SM SCT200 FM101500 17014G20KT P6SM SCT080
NOTAMs
Click for the latest NOTAMs
NOTAMs are issued by the DoD/FAA and will open in a separate window not controlled by AirNav.

 

 
 

Would you like to see your business listed on this page?

 If your business provides an interesting product or service to pilots, flight crews, aircraft, or users of the Seiling Airport, you should consider listing it here.  To start the listing process, click on the button below
 
Add a business
 

Other Pages about Seiling Airport

Update a link
 
Copyright © AirNav, LLC. All rights reserved. Privacy Policy  Contact